Time,TemperatureF,DewpointF,PressureIn,WindDirection,WindDirectionDegrees,WindSpeedMPH,WindSpeedGustMPH,Humidity,HourlyPrecipIn,Conditions,Clouds,dailyrainin,SoftwareType,DateUTC
2013-06-28 00:01:00,74.5,73.0,29.75,NE,45,8.1,8.1,95,0.00,RA,SKC,0.00,WeatherDisplay:10.37,2013-06-28 04:01:00,
2013-06-28 00:03:00,74.5,73.0,29.75,SE,135,4.6,4.6,95,0.00,RA,SKC,0.00,WeatherDisplay:10.37,2013-06-28 04:03:00,
2013-06-28 00:04:00,74.5,73.0,29.75,SE,135,7.6,7.6,95,0.00,RA,SKC,0.00,WeatherDisplay:10.37,2013-06-28 04:04:00,
2013-06-28 00:07:00,74.3,72.8,29.75,East,90,9.2,9.2,95,0.00,RA,SKC,0.00,WeatherDisplay:10.37,2013-06-28 04:07:00,
2013-06-28 00:09:00,74.3,72.8,29.75,East,90,8.1,8.1,95,0.00,RA,SKC,0.00,WeatherDisplay:10.37,2013-06-28 04:09:00,
2013-06-28 00:14:00,74.3,72.8,29.74,ESE,112,6.9,6.9,95,0.00,CLR,SKC,0.00,WeatherDisplay:10.37,2013-06-28 04:14:00,
2013-06-28 00:19:00,74.1,72.6,29.74,SSE,158,6.9,6.9,95,0.00,CLR,SKC,0.00,WeatherDisplay:10.37,2013-06-28 04:19:00,
2013-06-28 00:24:00,74.1,72.6,29.74,East,90,9.2,9.2,95,0.00,CLR,SKC,0.00,WeatherDisplay:10.37,2013-06-28 04:24:00,
2013-06-28 00:29:00,73.9,72.4,29.74,SE,135,8.1,8.1,95,0.00,CLR,SKC,0.00,WeatherDisplay:10.37,2013-06-28 04:29:00,
2013-06-28 00:34:00,74.1,72.6,29.74,East,90,4.6,4.6,95,0.00,CLR,SKC,0.00,WeatherDisplay:10.37,2013-06-28 04:34:00,
2013-06-28 00:39:00,73.9,72.4,29.74,NE,45,2.3,2.3,95,0.00,CLR,SKC,0.00,WeatherDisplay:10.37,2013-06-28 04:39:00,
2013-06-28 00:44:00,73.9,72.4,29.74,South,180,3.5,3.5,95,0.00,CLR,SKC,0.00,WeatherDisplay:10.37,2013-06-28 04:44:00,
2013-06-28 00:49:00,73.9,72.4,29.73,South,180,5.8,5.8,95,0.00,CLR,SKC,0.00,WeatherDisplay:10.37,2013-06-28 04:49:00,
2013-06-28 00:54:00,73.8,72.2,29.72,East,90,3.5,3.5,95,0.00,CLR,SKC,0.00,WeatherDisplay:10.37,2013-06-28 04:54:00,
2013-06-28 00:59:00,73.8,72.2,29.72,East,90,4.6,4.6,95,0.00,CLR,SKC,0.00,WeatherDisplay:10.37,2013-06-28 04:59:00,
2013-06-28 01:04:00,73.8,72.2,29.73,SE,135,3.5,3.8,95,0.00,CLR,SKC,0.00,WeatherDisplay:10.37,2013-06-28 05:04:00,
2013-06-28 01:09:00,73.6,72.1,29.72,East,90,3.5,3.5,95,0.00,CLR,SKC,0.00,WeatherDisplay:10.37,2013-06-28 05:09:00,
2013-06-28 01:14:00,73.6,72.1,29.73,SW,225,3.5,3.5,95,0.00,CLR,SKC,0.00,WeatherDisplay:10.37,2013-06-28 05:14:00,
2013-06-28 01:19:00,73.6,72.1,29.73,East,90,2.3,2.3,95,0.00,CLR,SKC,0.00,WeatherDisplay:10.37,2013-06-28 05:19:00,
2013-06-28 01:24:00,73.6,72.4,29.73,East,90,5.8,5.8,96,0.00,CLR,SKC,0.00,WeatherDisplay:10.37,2013-06-28 05:24:00,
2013-06-28 01:29:00,73.4,72.2,29.73,East,90,4.6,4.6,96,0.00,CLR,SKC,0.00,WeatherDisplay:10.37,2013-06-28 05:29:00,
2013-06-28 01:34:00,73.4,72.2,29.73,East,90,6.9,6.9,96,0.00,CLR,SKC,0.00,WeatherDisplay:10.37,2013-06-28 05:34:00,
2013-06-28 01:39:00,73.4,72.2,29.72,East,90,3.5,3.5,96,0.00,CLR,SKC,0.00,WeatherDisplay:10.37,2013-06-28 05:39:00,
2013-06-28 01:44:00,73.2,71.7,29.72,East,90,6.9,6.9,95,0.00,CLR,SKC,0.00,WeatherDisplay:10.37,2013-06-28 05:44:00,
2013-06-28 01:49:00,73.4,72.2,29.72,East,90,5.8,5.8,96,0.00,CLR,SKC,0.00,WeatherDisplay:10.37,2013-06-28 05:49:00,
2013-06-28 01:54:00,73.4,72.2,29.73,South,180,10.4,10.4,96,0.00,CLR,SKC,0.00,WeatherDisplay:10.37,2013-06-28 05:54:00,
2013-06-28 01:59:00,73.4,72.2,29.72,NW,315,6.9,6.9,96,0.00,CLR,SKC,0.00,WeatherDisplay:10.37,2013-06-28 05:59:00,
2013-06-28 02:04:00,73.4,72.2,29.72,East,90,5.8,5.8,96,0.00,CLR,SKC,0.00,WeatherDisplay:10.37,2013-06-28 06:04:00,
2013-06-28 02:09:00,73.4,72.2,29.73,East,90,5.8,5.8,96,0.00,CLR,SKC,0.00,WeatherDisplay:10.37,2013-06-28 06:09:00,
2013-06-28 02:14:00,73.4,72.2,29.73,East,90,5.8,5.8,96,0.00,CLR,SKC,0.00,WeatherDisplay:10.37,2013-06-28 06:14:00,
2013-06-28 02:19:00,73.4,72.2,29.73,NE,45,4.6,4.6,96,0.00,CLR,SKC,0.00,WeatherDisplay:10.37,2013-06-28 06:19:00,
2013-06-28 02:24:00,73.4,72.5,29.73,NE,45,4.6,4.6,97,0.00,CLR,SKC,0.00,WeatherDisplay:10.37,2013-06-28 06:24:00,
2013-06-28 02:29:00,73.6,72.7,29.73,East,90,5.8,5.8,97,0.00,CLR,SKC,0.00,WeatherDisplay:10.37,2013-06-28 06:29:00,
2013-06-28 02:34:00,73.6,72.7,29.72,North,0,3.5,3.5,97,0.00,CLR,SKC,0.00,WeatherDisplay:10.37,2013-06-28 06:34:00,
2013-06-28 02:39:00,73.6,72.7,29.73,NE,45,5.8,5.8,97,0.00,CLR,SKC,0.00,WeatherDisplay:10.37,2013-06-28 06:39:00,
2013-06-28 02:44:00,73.6,72.7,29.72,NW,315,6.9,6.9,97,0.00,CLR,SKC,0.00,WeatherDisplay:10.37,2013-06-28 06:44:00,
2013-06-28 02:49:00,73.6,72.4,29.72,East,90,5.8,5.8,96,0.00,CLR,SKC,0.00,WeatherDisplay:10.37,2013-06-28 06:49:00,
2013-06-28 02:54:00,73.6,72.4,29.72,NE,45,1.1,1.6,96,0.00,CLR,SKC,0.00,WeatherDisplay:10.37,2013-06-28 06:54:00,
2013-06-28 02:59:00,73.6,72.4,29.72,North,0,5.8,5.8,96,0.00,CLR,SKC,0.00,WeatherDisplay:10.37,2013-06-28 06:59:00,
2013-06-28 03:04:00,73.4,72.2,29.72,NE,45,3.5,3.5,96,0.00,CLR,SKC,0.00,WeatherDisplay:10.37,2013-06-28 07:04:00,
2013-06-28 03:09:00,73.4,72.2,29.72,NE,45,3.5,3.5,96,0.00,CLR,SKC,0.00,WeatherDisplay:10.37,2013-06-28 07:09:00,
2013-06-28 03:14:00,73.4,72.2,29.71,NE,45,3.5,3.5,96,0.00,CLR,SKC,0.00,WeatherDisplay:10.37,2013-06-28 07:14:00,
2013-06-28 03:19:00,73.6,72.7,29.71,NE,45,5.8,5.8,97,0.00,CLR,SKC,0.00,WeatherDisplay:10.37,2013-06-28 07:19:00,
2013-06-28 03:24:00,73.6,72.7,29.71,NE,45,3.5,3.5,97,0.00,CLR,SKC,0.00,WeatherDisplay:10.37,2013-06-28 07:24:00,
2013-06-28 03:29:00,73.8,72.9,29.71,North,0,3.5,3.5,97,0.00,CLR,SKC,0.00,WeatherDisplay:10.37,2013-06-28 07:29:00,
2013-06-28 03:34:00,73.9,73.0,29.70,SE,135,3.5,3.5,97,0.00,CLR,SKC,0.00,WeatherDisplay:10.37,2013-06-28 07:34:00,
2013-06-28 03:39:00,73.9,73.0,29.69,NW,315,5.8,5.8,97,0.00,CLR,SKC,0.00,WeatherDisplay:10.37,2013-06-28 07:39:00,
2013-06-28 03:44:00,73.9,72.7,29.69,NW,315,5.8,5.8,96,0.00,CLR,SKC,0.00,WeatherDisplay:10.37,2013-06-28 07:44:00,
2013-06-28 03:49:00,74.3,73.1,29.69,SE,135,8.1,8.1,96,0.00,CLR,SKC,0.00,WeatherDisplay:10.37,2013-06-28 07:49:00,
2013-06-28 03:54:00,74.3,73.1,29.69,East,90,6.9,6.9,96,0.00,CLR,SKC,0.00,WeatherDisplay:10.37,2013-06-28 07:54:00,
2013-06-28 03:59:00,74.3,73.1,29.68,East,90,3.5,3.5,96,0.00,CLR,SKC,0.00,WeatherDisplay:10.37,2013-06-28 07:59:00,
2013-06-28 04:04:00,74.3,73.1,29.68,NE,45,4.6,4.6,96,0.00,CLR,SKC,0.00,WeatherDisplay:10.37,2013-06-28 08:04:00,
2013-06-28 04:09:00,74.3,73.1,29.68,East,90,3.5,3.5,96,0.00,CLR,SKC,0.00,WeatherDisplay:10.37,2013-06-28 08:09:00,
2013-06-28 04:14:00,74.3,73.1,29.68,NW,315,5.8,5.8,96,0.00,CLR,SKC,0.00,WeatherDisplay:10.37,2013-06-28 08:14:00,
2013-06-28 04:19:00,74.3,73.1,29.68,SE,135,3.5,3.5,96,0.00,CLR,SKC,0.00,WeatherDisplay:10.37,2013-06-28 08:19:00,
2013-06-28 04:24:00,73.9,72.7,29.67,NW,315,3.5,3.5,96,0.00,CLR,SKC,0.00,WeatherDisplay:10.37,2013-06-28 08:24:00,
2013-06-28 04:29:00,73.9,72.7,29.67,NW,315,2.3,2.3,96,0.00,CLR,SKC,0.00,WeatherDisplay:10.37,2013-06-28 08:29:00,
2013-06-28 04:34:00,73.9,72.7,29.67,East,90,4.6,4.6,96,0.00,CLR,SKC,0.00,WeatherDisplay:10.37,2013-06-28 08:34:00,
2013-06-28 04:39:00,73.9,72.7,29.67,West,270,3.5,3.5,96,0.00,CLR,SKC,0.00,WeatherDisplay:10.37,2013-06-28 08:39:00,
2013-06-28 04:44:00,73.8,72.5,29.67,SE,135,2.3,2.3,96,0.00,CLR,SKC,0.00,WeatherDisplay:10.37,2013-06-28 08:44:00,
2013-06-28 04:49:00,73.8,72.5,29.67,South,180,1.1,0.0,96,0.00,CLR,SKC,0.00,WeatherDisplay:10.37,2013-06-28 08:49:00,
2013-06-28 04:54:00,73.6,72.4,29.67,NE,45,1.1,0.0,96,0.00,CLR,SKC,0.00,WeatherDisplay:10.37,2013-06-28 08:54:00,
2013-06-28 04:59:00,73.4,72.2,29.67,NW,315,1.1,0.0,96,0.00,CLR,SKC,0.00,WeatherDisplay:10.37,2013-06-28 08:59:00,
2013-06-28 05:04:00,73.4,72.2,29.68,NE,45,1.1,0.0,96,0.00,CLR,SKC,0.00,WeatherDisplay:10.37,2013-06-28 09:04:00,
2013-06-28 05:09:00,73.2,71.7,29.67,NE,45,1.1,0.0,95,0.00,CLR,SKC,0.00,WeatherDisplay:10.37,2013-06-28 09:09:00,
2013-06-28 05:14:00,73.2,71.7,29.67,South,180,3.5,0.0,95,0.00,CLR,SKC,0.00,WeatherDisplay:10.37,2013-06-28 09:14:00,
2013-06-28 05:19:00,73.2,71.7,29.67,East,90,1.1,1.1,95,0.00,CLR,SKC,0.00,WeatherDisplay:10.37,2013-06-28 09:19:00,
2013-06-28 05:24:00,73.2,71.7,29.68,NE,45,1.1,0.0,95,0.00,CLR,SKC,0.00,WeatherDisplay:10.37,2013-06-28 09:24:00,
2013-06-28 05:29:00,73.0,71.8,29.67,NW,315,2.3,0.0,96,0.00,CLR,SKC,0.00,WeatherDisplay:10.37,2013-06-28 09:29:00,
2013-06-28 05:34:00,73.0,71.8,29.68,NE,45,2.3,0.0,96,0.00,CLR,SKC,0.00,WeatherDisplay:10.37,2013-06-28 09:34:00,
2013-06-28 05:39:00,73.0,71.8,29.68,SE,135,1.1,0.0,96,0.00,CLR,SKC,0.00,WeatherDisplay:10.37,2013-06-28 09:39:00,
2013-06-28 05:44:00,73.0,71.8,29.67,SE,135,2.3,0.0,96,0.00,CLR,SKC,0.00,WeatherDisplay:10.37,2013-06-28 09:44:00,
2013-06-28 05:49:00,72.9,71.7,29.68,NW,315,4.6,0.0,96,0.00,CLR,SKC,0.00,WeatherDisplay:10.37,2013-06-28 09:49:00,
2013-06-28 05:54:00,72.9,71.7,29.67,East,90,1.1,1.1,96,0.00,CLR,SKC,0.00,WeatherDisplay:10.37,2013-06-28 09:54:00,
2013-06-28 05:59:00,72.9,71.7,29.67,SE,135,3.1,3.1,96,0.00,CLR,SKC,0.00,WeatherDisplay:10.37,2013-06-28 09:59:00,
2013-06-28 06:04:00,73.0,71.8,29.68,East,90,4.6,4.6,96,0.00,CLR,SKC,0.00,WeatherDisplay:10.37,2013-06-28 10:04:00,
2013-06-28 06:09:00,73.2,72.3,29.68,North,0,3.5,3.5,97,0.00,CLR,SKC,0.00,WeatherDisplay:10.37,2013-06-28 10:09:00,
2013-06-28 06:14:00,73.2,72.3,29.68,East,90,2.3,2.3,97,0.00,CLR,SKC,0.00,WeatherDisplay:10.37,2013-06-28 10:14:00,
2013-06-28 06:19:00,73.4,72.5,29.68,NE,45,3.5,3.5,97,0.00,CLR,SKC,0.00,WeatherDisplay:10.37,2013-06-28 10:19:00,
2013-06-28 06:24:00,73.2,72.3,29.68,NW,315,2.3,2.3,97,0.00,CLR,SKC,0.00,WeatherDisplay:10.37,2013-06-28 10:24:00,
2013-06-28 06:29:00,73.4,72.8,29.68,SE,135,3.5,3.5,98,0.00,CLR,SKC,0.00,WeatherDisplay:10.37,2013-06-28 10:29:00,
2013-06-28 06:34:00,73.4,72.8,29.67,NE,45,4.6,4.6,98,0.00,CLR,SKC,0.00,WeatherDisplay:10.37,2013-06-28 10:34:00,
2013-06-28 06:39:00,73.6,73.0,29.68,SE,135,2.3,2.3,98,0.00,CLR,SKC,0.00,WeatherDisplay:10.37,2013-06-28 10:39:00,
2013-06-28 06:44:00,73.6,73.0,29.68,East,90,1.1,1.6,98,0.00,CLR,SKC,0.00,WeatherDisplay:10.37,2013-06-28 10:44:00,
2013-06-28 06:49:00,73.8,73.2,29.68,East,90,3.5,3.5,98,0.00,CLR,SKC,0.00,WeatherDisplay:10.37,2013-06-28 10:49:00,
2013-06-28 06:54:00,73.8,73.2,29.68,SE,135,3.8,3.8,98,0.00,CLR,SKC,0.00,WeatherDisplay:10.37,2013-06-28 10:54:00,
2013-06-28 06:59:00,73.8,73.2,29.69,East,90,2.3,2.3,98,0.00,CLR,SKC,0.00,WeatherDisplay:10.37,2013-06-28 10:59:00,
2013-06-28 07:04:00,73.8,72.9,29.69,ENE,68,2.3,2.3,97,0.00,CLR,SKC,0.00,WeatherDisplay:10.37,2013-06-28 11:04:00,
2013-06-28 07:09:00,74.1,73.2,29.68,North,0,2.3,2.3,97,0.00,CLR,SKC,0.00,WeatherDisplay:10.37,2013-06-28 11:09:00,
2013-06-28 07:14:00,74.3,73.4,29.68,East,90,5.8,5.8,97,0.00,CLR,SKC,0.00,WeatherDisplay:10.37,2013-06-28 11:14:00,
2013-06-28 07:19:00,74.3,73.4,29.68,SE,135,2.3,2.3,97,0.00,CLR,SKC,0.00,WeatherDisplay:10.37,2013-06-28 11:19:00,
2013-06-28 07:24:00,74.7,73.8,29.68,NE,45,4.6,4.6,97,0.00,CLR,SKC,0.00,WeatherDisplay:10.37,2013-06-28 11:24:00,
2013-06-28 07:29:00,74.8,73.9,29.68,North,0,3.5,3.5,97,0.00,CLR,SKC,0.00,WeatherDisplay:10.37,2013-06-28 11:29:00,
2013-06-28 07:34:00,74.8,73.9,29.68,SE,135,8.1,8.1,97,0.00,CLR,SKC,0.00,WeatherDisplay:10.37,2013-06-28 11:34:00,
2013-06-28 07:39:00,75.0,74.1,29.68,NW,315,1.1,1.6,97,0.00,CLR,SKC,0.00,WeatherDisplay:10.37,2013-06-28 11:39:00,
2013-06-28 07:44:00,75.0,74.1,29.68,South,180,3.5,3.5,97,0.00,CLR,SKC,0.00,WeatherDisplay:10.37,2013-06-28 11:44:00,
2013-06-28 07:49:00,75.2,73.7,29.69,East,90,2.3,2.3,95,0.00,CLR,SKC,0.00,WeatherDisplay:10.37,2013-06-28 11:49:00,
2013-06-28 07:54:00,75.4,73.8,29.68,NW,315,5.8,5.8,95,0.00,CLR,SKC,0.00,WeatherDisplay:10.37,2013-06-28 11:54:00,
2013-06-28 07:59:00,75.6,74.0,29.69,East,90,3.5,3.5,95,0.00,CLR,SKC,0.00,WeatherDisplay:10.37,2013-06-28 11:59:00,
2013-06-28 08:04:00,75.6,74.0,29.69,NW,315,3.5,3.5,95,0.00,CLR,SKC,0.00,WeatherDisplay:10.37,2013-06-28 12:04:00,
2013-06-28 08:09:00,75.7,74.2,29.69,NW,315,3.1,3.1,95,0.00,CLR,SKC,0.00,WeatherDisplay:10.37,2013-06-28 12:09:00,
2013-06-28 08:14:00,75.9,74.4,29.69,NW,315,1.1,1.6,95,0.00,CLR,SKC,0.00,WeatherDisplay:10.37,2013-06-28 12:14:00,
2013-06-28 08:19:00,76.3,74.4,29.69,North,0,5.8,5.8,94,0.00,CLR,SKC,0.00,WeatherDisplay:10.37,2013-06-28 12:19:00,
2013-06-28 08:24:00,76.6,74.8,29.69,East,90,4.6,0.0,94,0.00,CLR,SKC,0.00,WeatherDisplay:10.37,2013-06-28 12:24:00,
2013-06-28 08:29:00,76.8,74.6,29.69,SE,135,5.8,5.8,93,0.00,CLR,SKC,0.00,WeatherDisplay:10.37,2013-06-28 12:29:00,
2013-06-28 08:34:00,77.0,74.2,29.68,East,90,4.6,4.6,91,0.00,CLR,SKC,0.00,WeatherDisplay:10.37,2013-06-28 12:34:00,
2013-06-28 08:39:00,77.4,74.2,29.68,North,0,5.8,5.8,90,0.00,CLR,SKC,0.00,WeatherDisplay:10.37,2013-06-28 12:39:00,
2013-06-28 08:44:00,77.7,74.6,29.68,North,0,3.5,3.5,90,0.00,CLR,SKC,0.00,WeatherDisplay:10.37,2013-06-28 12:44:00,
2013-06-28 08:49:00,78.4,74.9,29.69,North,0,1.1,1.6,89,0.00,CLR,SKC,0.00,WeatherDisplay:10.37,2013-06-28 12:49:00,
2013-06-28 08:54:00,78.8,74.3,29.69,NE,45,8.1,8.1,86,0.00,CLR,SKC,0.00,WeatherDisplay:10.37,2013-06-28 12:54:00,
2013-06-28 08:59:00,79.3,74.4,29.69,East,90,2.3,2.3,85,0.00,CLR,SKC,0.00,WeatherDisplay:10.37,2013-06-28 12:59:00,
2013-06-28 09:04:00,80.4,75.1,29.69,NW,315,2.3,0.0,84,0.00,CLR,SKC,0.00,WeatherDisplay:10.37,2013-06-28 13:04:00,
2013-06-28 09:09:00,81.0,74.9,29.69,East,90,3.5,3.5,82,0.00,CLR,SKC,0.00,WeatherDisplay:10.37,2013-06-28 13:09:00,
2013-06-28 09:14:00,82.9,75.4,29.69,South,180,3.5,0.0,78,0.00,CLR,SKC,0.00,WeatherDisplay:10.37,2013-06-28 13:14:00,
2013-06-28 09:19:00,83.3,75.3,29.69,East,90,8.1,8.1,77,0.00,CLR,SKC,0.00,WeatherDisplay:10.37,2013-06-28 13:19:00,
2013-06-28 09:24:00,82.8,74.8,29.69,NW,315,3.5,3.5,77,0.00,CLR,SKC,0.00,WeatherDisplay:10.37,2013-06-28 13:24:00,
2013-06-28 09:29:00,83.5,75.1,29.69,East,90,5.8,5.8,76,0.00,CLR,SKC,0.00,WeatherDisplay:10.37,2013-06-28 13:29:00,
2013-06-28 09:34:00,83.7,74.9,29.68,ENE,68,3.5,3.5,75,0.00,CLR,SKC,0.00,WeatherDisplay:10.37,2013-06-28 13:34:00,
2013-06-28 09:39:00,84.6,75.8,29.68,East,90,4.6,5.4,75,0.00,CLR,SKC,0.00,WeatherDisplay:10.37,2013-06-28 13:39:00,
2013-06-28 09:44:00,84.6,75.4,29.68,SE,135,3.5,3.5,74,0.00,CLR,SKC,0.00,WeatherDisplay:10.37,2013-06-28 13:44:00,
2013-06-28 09:49:00,84.7,75.1,29.68,East,90,6.9,6.9,73,0.00,CLR,SKC,0.00,WeatherDisplay:10.37,2013-06-28 13:49:00,
2013-06-28 09:54:00,84.4,75.2,29.68,NE,45,6.9,6.9,74,0.00,CLR,SKC,0.00,WeatherDisplay:10.37,2013-06-28 13:54:00,
2013-06-28 09:59:00,85.1,76.3,29.68,NE,45,3.5,3.5,75,0.00,CLR,SKC,0.00,WeatherDisplay:10.37,2013-06-28 13:59:00,
2013-06-28 10:04:00,85.8,75.7,29.69,East,90,8.1,8.1,72,0.00,CLR,SKC,0.00,WeatherDisplay:10.37,2013-06-28 14:04:00,
2013-06-28 10:09:00,85.6,76.4,29.68,SE,135,5.8,5.8,74,0.00,CLR,SKC,0.00,WeatherDisplay:10.37,2013-06-28 14:09:00,
2013-06-28 10:14:00,85.3,75.2,29.68,East,90,4.6,4.6,72,0.00,CLR,SKC,0.00,WeatherDisplay:10.37,2013-06-28 14:14:00,
2013-06-28 10:19:00,86.4,76.3,29.68,NW,315,3.5,3.5,72,0.00,CLR,SKC,0.00,WeatherDisplay:10.37,2013-06-28 14:19:00,
2013-06-28 10:25:00,86.4,75.0,29.68,ESE,112,8.1,8.1,69,0.00,CLR,SKC,0.00,WeatherDisplay:10.37,2013-06-28 14:25:00,
2013-06-28 10:30:00,86.4,75.8,29.68,North,0,4.6,4.6,71,0.00,CLR,SKC,0.00,WeatherDisplay:10.37,2013-06-28 14:30:00,
2013-06-28 10:35:00,86.5,75.2,29.69,East,90,10.4,10.4,69,0.00,CLR,SKC,0.00,WeatherDisplay:10.37,2013-06-28 14:35:00,
2013-06-28 10:40:00,86.4,75.8,29.69,NE,45,4.6,4.6,71,0.00,CLR,SKC,0.00,WeatherDisplay:10.37,2013-06-28 14:40:00,
2013-06-28 10:45:00,86.9,75.9,29.69,North,0,10.4,10.4,70,0.00,CLR,SKC,0.00,WeatherDisplay:10.37,2013-06-28 14:45:00,
2013-06-28 10:50:00,87.4,75.6,29.69,East,90,6.9,6.9,68,0.00,CLR,SKC,0.00,WeatherDisplay:10.37,2013-06-28 14:50:00,
2013-06-28 10:55:00,86.9,75.5,29.69,East,90,9.2,9.2,69,0.00,CLR,SKC,0.00,WeatherDisplay:10.37,2013-06-28 14:55:00,
2013-06-28 11:00:00,87.3,76.3,29.68,East,90,5.8,5.8,70,0.00,CLR,SKC,0.00,WeatherDisplay:10.37,2013-06-28 15:00:00,
2013-06-28 11:05:00,87.6,77.0,29.68,North,0,6.9,6.9,71,0.00,CLR,SKC,0.00,WeatherDisplay:10.37,2013-06-28 15:05:00,
2013-06-28 11:10:00,88.3,75.5,29.68,NE,45,8.1,8.1,66,0.00,CLR,SKC,0.00,WeatherDisplay:10.37,2013-06-28 15:10:00,
2013-06-28 11:15:00,87.8,75.0,29.69,NW,315,5.8,5.8,66,0.00,CLR,SKC,0.00,WeatherDisplay:10.37,2013-06-28 15:15:00,
2013-06-28 11:20:00,88.0,75.2,29.68,East,90,11.4,11.4,66,0.00,CLR,SKC,0.00,WeatherDisplay:10.37,2013-06-28 15:20:00,
2013-06-28 11:25:00,87.8,75.5,29.68,East,90,8.1,8.1,67,0.00,CLR,SKC,0.00,WeatherDisplay:10.37,2013-06-28 15:25:00,
2013-06-28 11:30:00,88.2,74.9,29.68,NW,315,4.6,4.6,65,0.00,CLR,SKC,0.00,WeatherDisplay:10.37,2013-06-28 15:30:00,
2013-06-28 11:35:00,88.5,75.2,29.68,East,90,8.1,8.1,65,0.00,CLR,SKC,0.00,WeatherDisplay:10.37,2013-06-28 15:35:00,
2013-06-28 11:40:00,89.1,75.3,29.68,East,90,9.2,9.2,64,0.00,CLR,SKC,0.00,WeatherDisplay:10.37,2013-06-28 15:40:00,
2013-06-28 11:45:00,89.2,75.0,29.69,East,90,8.1,8.3,63,0.00,CLR,SKC,0.00,WeatherDisplay:10.37,2013-06-28 15:45:00,
2013-06-28 11:50:00,89.1,75.3,29.68,ENE,68,8.1,8.1,64,0.00,CLR,SKC,0.00,WeatherDisplay:10.37,2013-06-28 15:50:00,
2013-06-28 11:55:00,88.7,74.5,29.68,North,0,6.9,6.9,63,0.00,CLR,SKC,0.00,WeatherDisplay:10.37,2013-06-28 15:55:00,
2013-06-28 12:00:00,88.9,75.6,29.68,East,90,6.9,6.9,65,0.00,CLR,SKC,0.00,WeatherDisplay:10.37,2013-06-28 16:00:00,
2013-06-28 12:02:00,89.2,75.5,29.68,West,270,6.9,6.9,64,0.00,CLR,SKC,0.00,WeatherDisplay:10.37,2013-06-28 16:02:00,
2013-06-28 12:07:00,88.5,73.8,29.67,NNE,22,3.5,3.5,62,0.00,CLR,SKC,0.00,WeatherDisplay:10.37,2013-06-28 16:07:00,
2013-06-28 12:12:00,89.2,75.0,29.67,South,180,8.1,8.1,63,0.00,CLR,SKC,0.00,WeatherDisplay:10.37,2013-06-28 16:12:00,
2013-06-28 12:17:00,90.3,72.5,29.67,NW,315,3.5,4.5,56,0.00,CLR,SKC,0.00,WeatherDisplay:10.37,2013-06-28 16:17:00,
2013-06-28 12:22:00,90.7,73.9,29.67,NW,315,5.4,5.4,58,0.00,CLR,SKC,0.00,WeatherDisplay:10.37,2013-06-28 16:22:00,
2013-06-28 12:27:00,90.3,74.5,29.67,SE,135,8.1,8.1,60,0.00,CLR,SKC,0.00,WeatherDisplay:10.37,2013-06-28 16:27:00,
2013-06-28 12:32:00,89.6,74.4,29.67,NE,45,3.5,3.5,61,0.00,CLR,SKC,0.00,WeatherDisplay:10.37,2013-06-28 16:32:00,
2013-06-28 12:37:00,90.7,72.3,29.67,East,90,3.5,3.5,55,0.00,CLR,SKC,0.00,WeatherDisplay:10.37,2013-06-28 16:37:00,
2013-06-28 12:42:00,90.9,74.5,29.67,North,0,5.8,5.8,59,0.00,CLR,SKC,0.00,WeatherDisplay:10.37,2013-06-28 16:42:00,
2013-06-28 12:47:00,91.2,74.9,29.67,East,90,5.8,5.8,59,0.00,CLR,SKC,0.00,WeatherDisplay:10.37,2013-06-28 16:47:00,
2013-06-28 12:52:00,91.4,74.0,29.67,SE,135,8.1,8.3,57,0.00,CLR,SKC,0.00,WeatherDisplay:10.37,2013-06-28 16:52:00,
2013-06-28 12:57:00,90.5,72.7,29.67,East,90,8.1,8.1,56,0.00,CLR,SKC,0.00,WeatherDisplay:10.37,2013-06-28 16:57:00,
2013-06-28 13:02:00,88.7,74.0,29.67,SE,135,11.5,11.5,62,0.00,CLR,SKC,0.00,WeatherDisplay:10.37,2013-06-28 17:02:00,
2013-06-28 13:07:00,88.9,75.1,29.67,East,90,4.6,4.6,64,0.00,CLR,SKC,0.00,WeatherDisplay:10.37,2013-06-28 17:07:00,
2013-06-28 13:12:00,90.5,75.7,29.66,SE,135,8.1,8.1,62,0.00,CLR,SKC,0.00,WeatherDisplay:10.37,2013-06-28 17:12:00,
2013-06-28 13:17:00,90.0,74.7,29.66,SE,135,5.8,5.8,61,0.00,CLR,SKC,0.00,WeatherDisplay:10.37,2013-06-28 17:17:00,
2013-06-28 13:22:00,89.6,74.9,29.66,SE,135,10.4,10.4,62,0.00,CLR,SKC,0.00,WeatherDisplay:10.37,2013-06-28 17:22:00,
2013-06-28 13:27:00,89.1,74.8,29.66,NW,315,11.5,11.5,63,0.00,CLR,SKC,0.00,WeatherDisplay:10.37,2013-06-28 17:27:00,
2013-06-28 13:32:00,90.7,75.4,29.65,East,90,11.5,11.5,61,0.00,CLR,SKC,0.00,WeatherDisplay:10.37,2013-06-28 17:32:00,
2013-06-28 13:37:00,89.8,76.0,29.65,East,90,4.6,4.6,64,0.00,CLR,SKC,0.00,WeatherDisplay:10.37,2013-06-28 17:37:00,
2013-06-28 13:42:00,90.5,73.7,29.65,East,90,5.8,5.8,58,0.00,CLR,SKC,0.00,WeatherDisplay:10.37,2013-06-28 17:42:00,
2013-06-28 13:47:00,90.5,75.7,29.65,East,90,10.4,10.4,62,0.00,CLR,SKC,0.00,WeatherDisplay:10.37,2013-06-28 17:47:00,
2013-06-28 13:52:00,90.1,74.9,29.65,East,90,4.6,4.6,61,0.00,CLR,SKC,0.00,WeatherDisplay:10.37,2013-06-28 17:52:00,
2013-06-28 13:57:00,90.5,75.2,29.65,East,90,12.7,12.7,61,0.00,CLR,SKC,0.00,WeatherDisplay:10.37,2013-06-28 17:57:00,
2013-06-28 14:02:00,89.8,74.0,29.64,SE,135,9.2,9.2,60,0.00,CLR,SKC,0.00,WeatherDisplay:10.37,2013-06-28 18:02:00,
2013-06-28 14:07:00,88.3,74.1,29.65,SE,135,12.7,12.7,63,0.00,CLR,SKC,0.00,WeatherDisplay:10.37,2013-06-28 18:07:00,
2013-06-28 14:12:00,90.1,74.9,29.64,East,90,8.1,8.1,61,0.00,CLR,SKC,0.00,WeatherDisplay:10.37,2013-06-28 18:12:00,
2013-06-28 14:17:00,90.5,74.7,29.64,North,0,8.1,8.1,60,0.00,CLR,SKC,0.00,WeatherDisplay:10.37,2013-06-28 18:17:00,
2013-06-28 14:22:00,90.1,74.9,29.64,NE,45,12.7,12.7,61,0.00,CLR,SKC,0.00,WeatherDisplay:10.37,2013-06-28 18:22:00,
2013-06-28 14:27:00,90.0,75.2,29.64,East,90,11.5,11.5,62,0.00,CLR,SKC,0.00,WeatherDisplay:10.37,2013-06-28 18:27:00,
2013-06-28 14:32:00,91.2,75.4,29.64,East,90,5.8,6.0,60,0.00,CLR,SKC,0.00,WeatherDisplay:10.37,2013-06-28 18:32:00,
2013-06-28 14:37:00,92.1,75.7,29.64,East,90,5.8,5.8,59,0.00,CLR,SKC,0.00,WeatherDisplay:10.37,2013-06-28 18:37:00,
2013-06-28 14:42:00,92.1,74.2,29.64,North,0,3.5,3.5,56,0.00,CLR,SKC,0.00,WeatherDisplay:10.37,2013-06-28 18:42:00,
2013-06-28 14:47:00,90.5,74.2,29.64,East,90,3.5,6.0,59,0.00,CLR,SKC,0.00,WeatherDisplay:10.37,2013-06-28 18:47:00,
2013-06-28 14:52:00,89.8,74.0,29.63,NE,45,8.1,8.1,60,0.00,CLR,SKC,0.00,WeatherDisplay:10.37,2013-06-28 18:52:00,
2013-06-28 14:58:00,90.5,73.2,29.63,SE,135,8.1,8.1,57,0.00,CLR,SKC,0.00,WeatherDisplay:10.37,2013-06-28 18:58:00,
2013-06-28 15:03:00,90.3,73.5,29.63,East,90,9.2,9.2,58,0.00,CLR,SKC,0.00,WeatherDisplay:10.37,2013-06-28 19:03:00,
2013-06-28 15:08:00,90.5,73.2,29.63,ESE,112,12.7,12.7,57,0.00,CLR,SKC,0.00,WeatherDisplay:10.37,2013-06-28 19:08:00,
2013-06-28 15:13:00,91.9,74.0,29.63,SE,135,8.1,8.1,56,0.00,CLR,SKC,0.00,WeatherDisplay:10.37,2013-06-28 19:13:00,
2013-06-28 15:18:00,91.8,73.3,29.62,East,90,9.2,9.2,55,0.00,CLR,SKC,0.00,WeatherDisplay:10.37,2013-06-28 19:18:00,
2013-06-28 15:23:00,91.4,73.0,29.62,SE,135,6.9,6.9,55,0.00,CLR,SKC,0.00,WeatherDisplay:10.37,2013-06-28 19:23:00,
2013-06-28 15:28:00,92.1,74.2,29.62,South,180,11.5,11.5,56,0.00,CLR,SKC,0.00,WeatherDisplay:10.37,2013-06-28 19:28:00,
2013-06-28 15:33:00,92.7,72.5,29.62,SE,135,5.8,5.8,52,0.00,CLR,SKC,0.00,WeatherDisplay:10.37,2013-06-28 19:33:00,
2013-06-28 15:38:00,93.0,74.5,29.62,East,90,10.4,10.4,55,0.00,CLR,SKC,0.00,WeatherDisplay:10.37,2013-06-28 19:38:00,
2013-06-28 15:43:00,92.7,73.0,29.61,ESE,112,10.4,10.4,53,0.00,CLR,SKC,0.00,WeatherDisplay:10.37,2013-06-28 19:43:00,
2013-06-28 15:48:00,92.1,73.6,29.61,East,90,8.1,8.1,55,0.00,CLR,SKC,0.00,WeatherDisplay:10.37,2013-06-28 19:48:00,
2013-06-28 15:53:00,92.7,74.7,29.61,East,90,5.8,5.8,56,0.00,CLR,SKC,0.00,WeatherDisplay:10.37,2013-06-28 19:53:00,
2013-06-28 15:58:00,92.7,74.1,29.60,East,90,6.9,6.9,55,0.00,CLR,SKC,0.00,WeatherDisplay:10.37,2013-06-28 19:58:00,
2013-06-28 16:03:00,92.1,72.5,29.60,East,90,11.5,11.5,53,0.00,CLR,SKC,0.00,WeatherDisplay:10.37,2013-06-28 20:03:00,
2013-06-28 16:08:00,92.1,73.1,29.60,NE,45,10.4,10.4,54,0.00,CLR,SKC,0.00,WeatherDisplay:10.37,2013-06-28 20:08:00,
2013-06-28 16:13:00,92.1,72.5,29.59,NE,45,5.8,5.8,53,0.00,CLR,SKC,0.00,WeatherDisplay:10.37,2013-06-28 20:13:00,
2013-06-28 16:19:00,93.4,72.5,29.59,ESE,112,5.8,5.8,51,0.00,CLR,SKC,0.00,WeatherDisplay:10.37,2013-06-28 20:19:00,
2013-06-28 16:24:00,93.4,72.0,29.59,SE,135,9.2,9.2,50,0.00,CLR,SKC,0.00,WeatherDisplay:10.37,2013-06-28 20:24:00,
2013-06-28 16:29:00,92.8,72.1,29.59,NE,45,8.1,8.1,51,0.00,CLR,SKC,0.00,WeatherDisplay:10.37,2013-06-28 20:29:00,
2013-06-28 16:34:00,92.7,71.9,29.59,ENE,68,8.1,8.1,51,0.00,CLR,SKC,0.00,WeatherDisplay:10.37,2013-06-28 20:34:00,
2013-06-28 16:39:00,92.7,71.9,29.59,NE,45,10.4,10.4,51,0.00,CLR,SKC,0.00,WeatherDisplay:10.37,2013-06-28 20:39:00,
2013-06-28 16:44:00,92.1,72.0,29.59,ENE,68,12.7,12.7,52,0.00,CLR,SKC,0.00,WeatherDisplay:10.37,2013-06-28 20:44:00,
2013-06-28 16:49:00,92.1,70.8,29.58,North,0,8.1,8.1,50,0.00,CLR,SKC,0.00,WeatherDisplay:10.37,2013-06-28 20:49:00,
2013-06-28 16:54:00,92.1,72.0,29.58,ESE,112,9.2,9.2,52,0.00,CLR,SKC,0.00,WeatherDisplay:10.37,2013-06-28 20:54:00,
2013-06-28 16:59:00,92.7,72.5,29.58,NNE,22,4.6,4.6,52,0.00,CLR,SKC,0.00,WeatherDisplay:10.37,2013-06-28 20:59:00,
2013-06-28 17:04:00,93.2,71.2,29.58,SE,135,3.5,3.5,49,0.00,CLR,SKC,0.00,WeatherDisplay:10.37,2013-06-28 21:04:00,
2013-06-28 17:09:00,93.0,72.2,29.57,NE,45,4.6,4.6,51,0.00,CLR,SKC,0.00,WeatherDisplay:10.37,2013-06-28 21:09:00,
2013-06-28 17:14:00,92.7,71.3,29.57,NE,45,4.6,4.6,50,0.00,CLR,SKC,0.00,WeatherDisplay:10.37,2013-06-28 21:14:00,
2013-06-28 17:19:00,91.8,71.1,29.57,East,90,8.1,8.1,51,0.00,CLR,SKC,0.00,WeatherDisplay:10.37,2013-06-28 21:19:00,
2013-06-28 17:24:00,91.4,71.3,29.57,ENE,68,8.1,8.1,52,0.00,CLR,SKC,0.00,WeatherDisplay:10.37,2013-06-28 21:24:00,
2013-06-28 17:29:00,91.4,71.9,29.57,East,90,10.4,10.4,53,0.00,CLR,SKC,0.00,WeatherDisplay:10.37,2013-06-28 21:29:00,
2013-06-28 17:34:00,90.5,71.0,29.56,South,180,9.2,9.2,53,0.00,CLR,SKC,0.00,WeatherDisplay:10.37,2013-06-28 21:34:00,
2013-06-28 17:39:00,89.6,72.3,29.57,East,90,5.8,5.8,57,0.00,CLR,SKC,0.00,WeatherDisplay:10.37,2013-06-28 21:39:00,
2013-06-28 17:44:00,88.7,73.5,29.58,North,0,6.9,6.9,61,0.00,CLR,SKC,0.00,WeatherDisplay:10.37,2013-06-28 21:44:00,
2013-06-28 17:49:00,88.3,73.7,29.59,NE,45,8.1,8.1,62,0.00,CLR,SKC,0.00,WeatherDisplay:10.37,2013-06-28 21:49:00,
2013-06-28 17:54:00,88.0,73.3,29.59,NE,45,5.8,5.8,62,0.00,CLR,SKC,0.00,WeatherDisplay:10.37,2013-06-28 21:54:00,
2013-06-28 17:59:00,87.6,73.9,29.59,East,90,6.9,6.9,64,0.00,CLR,SKC,0.00,WeatherDisplay:10.37,2013-06-28 21:59:00,
2013-06-28 18:04:00,87.3,73.6,29.58,ESE,112,5.8,5.8,64,0.00,CLR,SKC,0.00,WeatherDisplay:10.37,2013-06-28 22:04:00,
2013-06-28 18:09:00,86.9,73.7,29.59,West,270,3.5,3.5,65,0.00,CLR,SKC,0.00,WeatherDisplay:10.37,2013-06-28 22:09:00,
2013-06-28 18:14:00,86.9,73.7,29.60,East,90,3.5,3.5,65,0.00,CLR,SKC,0.00,WeatherDisplay:10.37,2013-06-28 22:14:00,
2013-06-28 18:19:00,86.9,73.7,29.59,East,90,3.5,3.5,65,0.00,CLR,SKC,0.00,WeatherDisplay:10.37,2013-06-28 22:19:00,
2013-06-28 18:24:00,86.7,74.0,29.59,East,90,4.6,4.6,66,0.00,CLR,SKC,0.00,WeatherDisplay:10.37,2013-06-28 22:24:00,
2013-06-28 18:29:00,86.4,74.1,29.59,East,90,2.3,2.3,67,0.00,CLR,SKC,0.00,WeatherDisplay:10.37,2013-06-28 22:29:00,
2013-06-28 18:34:00,85.8,74.5,29.60,SE,135,5.8,5.8,69,0.00,CLR,SKC,0.00,WeatherDisplay:10.37,2013-06-28 22:34:00,
2013-06-28 18:39:00,85.6,74.3,29.60,East,90,1.1,1.6,69,0.00,CLR,SKC,0.00,WeatherDisplay:10.37,2013-06-28 22:39:00,
2013-06-28 18:44:00,85.3,74.4,29.60,East,90,2.3,2.3,70,0.00,CLR,SKC,0.00,WeatherDisplay:10.37,2013-06-28 22:44:00,
2013-06-28 18:49:00,85.1,74.6,29.60,East,90,3.5,3.5,71,0.00,CLR,SKC,0.00,WeatherDisplay:10.37,2013-06-28 22:49:00,
2013-06-28 18:54:00,84.9,74.5,29.61,North,0,1.1,0.0,71,0.00,CLR,SKC,0.00,WeatherDisplay:10.37,2013-06-28 22:54:00,
2013-06-28 18:59:00,84.7,74.7,29.62,NW,315,4.6,4.6,72,0.00,CLR,SKC,0.00,WeatherDisplay:10.37,2013-06-28 22:59:00,
2013-06-28 19:04:00,83.1,70.1,29.63,NW,315,17.3,17.3,65,0.00,CLR,SKC,0.00,WeatherDisplay:10.37,2013-06-28 23:04:00,
2013-06-28 19:09:00,81.5,69.0,29.64,NW,315,12.7,12.7,66,0.00,CLR,SKC,0.00,WeatherDisplay:10.37,2013-06-28 23:09:00,
2013-06-28 19:14:00,80.4,68.9,29.63,West,270,20.7,20.7,68,0.01,RA,SKC,0.01,WeatherDisplay:10.37,2013-06-28 23:14:00,
2013-06-28 19:19:00,79.3,67.9,29.63,West,270,12.7,12.7,68,0.01,RA,SKC,0.01,WeatherDisplay:10.37,2013-06-28 23:19:00,
2013-06-28 19:24:00,78.1,68.7,29.64,West,270,18.4,18.4,73,0.01,CLR,SKC,0.01,WeatherDisplay:10.37,2013-06-28 23:24:00,
2013-06-28 19:29:00,76.6,68.5,29.63,NW,315,5.4,5.4,76,0.01,CLR,SKC,0.02,WeatherDisplay:10.37,2013-06-28 23:29:00,
2013-06-28 19:34:00,74.8,69.3,29.63,NW,315,5.8,5.8,83,0.05,RA,SKC,0.05,WeatherDisplay:10.37,2013-06-28 23:34:00,
2013-06-28 19:39:00,73.4,69.3,29.63,North,0,9.2,9.2,87,0.11,RA,SKC,0.12,WeatherDisplay:10.37,2013-06-28 23:39:00,
2013-06-28 19:44:00,72.9,69.1,29.62,East,90,6.9,6.9,88,0.12,RA,SKC,0.12,WeatherDisplay:10.37,2013-06-28 23:44:00,
2013-06-28 19:49:00,72.7,69.6,29.61,East,90,8.1,8.1,90,0.12,RA,SKC,0.12,WeatherDisplay:10.37,2013-06-28 23:49:00,
2013-06-28 19:54:00,72.7,69.9,29.62,NE,45,5.8,5.8,91,0.12,CLR,SKC,0.12,WeatherDisplay:10.37,2013-06-28 23:54:00,
2013-06-28 19:59:00,72.5,69.7,29.61,East,90,8.1,8.1,91,0.12,CLR,SKC,0.12,WeatherDisplay:10.37,2013-06-28 23:59:00,
2013-06-28 20:04:00,72.3,69.5,29.61,East,90,5.8,5.8,91,0.12,CLR,SKC,0.12,WeatherDisplay:10.37,2013-06-29 00:04:00,
2013-06-28 20:09:00,72.3,69.5,29.61,ESE,112,6.9,6.9,91,0.12,CLR,SKC,0.12,WeatherDisplay:10.37,2013-06-29 00:09:00,
2013-06-28 20:14:00,72.5,69.7,29.61,East,90,8.1,8.1,91,0.12,RA,SKC,0.13,WeatherDisplay:10.37,2013-06-29 00:14:00,
2013-06-28 20:19:00,72.5,69.7,29.61,SE,135,5.8,5.8,91,0.12,RA,SKC,0.13,WeatherDisplay:10.37,2013-06-29 00:19:00,
2013-06-28 20:24:00,72.5,69.7,29.61,East,90,6.9,6.9,91,0.12,,SKC,0.13,WeatherDisplay:10.37,2013-06-29 00:24:00,
2013-06-28 20:29:00,72.5,70.0,29.60,SE,135,5.8,5.8,92,0.12,CLR,SKC,0.13,WeatherDisplay:10.37,2013-06-29 00:29:00,
2013-06-28 20:34:00,72.5,70.0,29.61,NW,315,2.3,2.3,92,0.08,CLR,SKC,0.13,WeatherDisplay:10.37,2013-06-29 00:34:00,
2013-06-28 20:39:00,72.5,70.0,29.61,East,90,4.6,4.6,92,0.02,CLR,SKC,0.13,WeatherDisplay:10.37,2013-06-29 00:39:00,
2013-06-28 20:44:00,72.5,70.4,29.61,ESE,105,2.0,6.0,93,0.00,CLR,SKC,0.13,WeatherDisplay:10.37,2013-06-29 00:44:00,
2013-06-28 20:50:00,72.5,70.4,29.60,East,90,8.1,8.1,93,0.01,CLR,SKC,0.13,WeatherDisplay:10.37,2013-06-29 00:50:00,
2013-06-28 20:55:00,72.5,70.4,29.60,East,90,5.8,5.8,93,0.01,CLR,SKC,0.13,WeatherDisplay:10.37,2013-06-29 00:55:00,
2013-06-28 21:00:00,72.5,70.7,29.61,East,90,5.8,5.8,94,0.01,CLR,SKC,0.13,WeatherDisplay:10.37,2013-06-29 01:00:00,
2013-06-28 21:05:00,72.5,70.7,29.61,East,90,6.9,6.9,94,0.01,CLR,SKC,0.13,WeatherDisplay:10.37,2013-06-29 01:05:00,
2013-06-28 21:10:00,72.5,70.7,29.62,SE,135,6.9,6.9,94,0.01,CLR,SKC,0.13,WeatherDisplay:10.37,2013-06-29 01:10:00,
2013-06-28 21:15:00,72.7,71.2,29.63,East,90,6.9,6.9,95,0.00,CLR,SKC,0.13,WeatherDisplay:10.37,2013-06-29 01:15:00,
2013-06-28 21:20:00,72.7,71.2,29.63,East,90,5.8,5.8,95,0.00,CLR,SKC,0.13,WeatherDisplay:10.37,2013-06-29 01:20:00,
2013-06-28 21:25:00,72.9,71.0,29.62,East,90,4.6,4.6,94,0.00,CLR,SKC,0.13,WeatherDisplay:10.37,2013-06-29 01:25:00,
2013-06-28 21:30:00,73.0,71.2,29.63,East,90,6.9,6.9,94,0.00,CLR,SKC,0.13,WeatherDisplay:10.37,2013-06-29 01:30:00,
2013-06-28 21:35:00,73.0,71.2,29.63,East,90,5.8,5.8,94,0.00,CLR,SKC,0.13,WeatherDisplay:10.37,2013-06-29 01:35:00,
2013-06-28 21:40:00,73.0,71.2,29.63,NE,45,2.3,2.3,94,0.00,CLR,SKC,0.13,WeatherDisplay:10.37,2013-06-29 01:40:00,
2013-06-28 21:45:00,73.0,71.2,29.63,East,90,2.3,2.3,94,0.00,CLR,SKC,0.13,WeatherDisplay:10.37,2013-06-29 01:45:00,
2013-06-28 21:50:00,73.0,71.2,29.63,East,90,4.6,4.6,94,0.00,CLR,SKC,0.13,WeatherDisplay:10.37,2013-06-29 01:50:00,
2013-06-28 21:55:00,72.9,71.0,29.64,SE,135,3.5,3.8,94,0.00,CLR,SKC,0.13,WeatherDisplay:10.37,2013-06-29 01:55:00,
2013-06-28 22:00:00,72.9,71.0,29.65,SSW,202,8.1,8.1,94,0.00,CLR,SKC,0.13,WeatherDisplay:10.37,2013-06-29 02:00:00,
2013-06-28 22:05:00,72.9,71.0,29.65,East,90,8.1,8.1,94,0.00,CLR,SKC,0.13,WeatherDisplay:10.37,2013-06-29 02:05:00,
2013-06-28 22:10:00,72.9,71.0,29.65,East,90,8.1,8.1,94,0.00,CLR,SKC,0.13,WeatherDisplay:10.37,2013-06-29 02:10:00,
2013-06-28 22:15:00,72.9,71.0,29.65,ESE,112,6.9,6.9,94,0.00,CLR,SKC,0.13,WeatherDisplay:10.37,2013-06-29 02:15:00,
2013-06-28 22:20:00,72.9,71.3,29.66,East,90,5.8,5.8,95,0.00,CLR,SKC,0.13,WeatherDisplay:10.37,2013-06-29 02:20:00,
2013-06-28 22:25:00,72.9,71.3,29.65,SE,135,5.8,5.8,95,0.00,CLR,SKC,0.13,WeatherDisplay:10.37,2013-06-29 02:25:00,
2013-06-28 22:30:00,72.7,71.2,29.64,SE,135,6.9,6.9,95,0.00,CLR,SKC,0.13,WeatherDisplay:10.37,2013-06-29 02:30:00,
2013-06-28 22:35:00,72.7,71.2,29.65,SE,135,5.8,5.8,95,0.00,CLR,SKC,0.13,WeatherDisplay:10.37,2013-06-29 02:35:00,
2013-06-28 22:40:00,72.7,71.2,29.64,East,90,5.8,5.8,95,0.00,CLR,SKC,0.13,WeatherDisplay:10.37,2013-06-29 02:40:00,
2013-06-28 22:45:00,72.9,71.3,29.64,East,90,5.8,5.8,95,0.00,CLR,SKC,0.13,WeatherDisplay:10.37,2013-06-29 02:45:00,
2013-06-28 22:50:00,72.9,71.3,29.64,East,90,3.5,3.5,95,0.00,CLR,SKC,0.13,WeatherDisplay:10.37,2013-06-29 02:50:00,
2013-06-28 22:55:00,72.9,71.3,29.64,East,90,3.5,3.5,95,0.00,CLR,SKC,0.13,WeatherDisplay:10.37,2013-06-29 02:55:00,
2013-06-28 23:00:00,72.9,71.3,29.63,East,90,2.3,2.3,95,0.00,CLR,SKC,0.13,WeatherDisplay:10.37,2013-06-29 03:00:00,
2013-06-28 23:05:00,72.9,71.3,29.63,East,90,3.5,3.5,95,0.01,RA,SKC,0.14,WeatherDisplay:10.37,2013-06-29 03:05:00,
2013-06-28 23:10:00,72.9,71.3,29.64,SE,135,3.5,3.5,95,0.01,RA,SKC,0.15,WeatherDisplay:10.37,2013-06-29 03:10:00,
2013-06-28 23:15:00,72.9,71.3,29.63,West,270,1.1,0.0,95,0.04,RA,SKC,0.17,WeatherDisplay:10.37,2013-06-29 03:15:00,
2013-06-28 23:20:00,72.7,71.2,29.63,West,270,1.1,1.1,95,0.05,RA,SKC,0.18,WeatherDisplay:10.37,2013-06-29 03:20:00,
2013-06-28 23:25:00,72.9,71.3,29.64,NW,315,1.1,1.1,95,0.06,RA,SKC,0.19,WeatherDisplay:10.37,2013-06-29 03:25:00,
2013-06-28 23:30:00,72.9,71.3,29.64,SE,135,1.1,0.0,95,0.07,RA,SKC,0.20,WeatherDisplay:10.37,2013-06-29 03:30:00,
2013-06-28 23:35:00,72.7,71.2,29.63,SE,135,1.1,0.0,95,0.07,RA,SKC,0.20,WeatherDisplay:10.37,2013-06-29 03:35:00,
2013-06-28 23:40:00,72.7,71.2,29.64,East,90,3.5,3.5,95,0.07,,SKC,0.20,WeatherDisplay:10.37,2013-06-29 03:40:00,
2013-06-28 23:45:00,72.7,71.2,29.65,North,0,4.6,4.6,95,0.07,CLR,SKC,0.20,WeatherDisplay:10.37,2013-06-29 03:45:00,
2013-06-28 23:50:00,72.9,71.7,29.65,West,270,3.5,3.5,96,0.07,CLR,SKC,0.20,WeatherDisplay:10.37,2013-06-29 03:50:00,
2013-06-28 23:55:00,72.9,71.7,29.66,West,270,1.1,2.2,96,0.07,CLR,SKC,0.20,WeatherDisplay:10.37,2013-06-29 03:55:00,